Dewpoint
62 63 63 63 63 63 62 61 61 61 61 61 61 61 61 61 62 61 61 60 60 60 59 58 58 58 59 59 60 59 61 62 62 62 62 62 62 62 61 61 61 61
60 62 63 63 62 62 62 62 62 61 61 61 61 61 61 61 60 59 59 60 59 58 58 58 59 59 58 59 60 60 60 61 61 63 62 61 61 62 61 61 61 61
62 60 61 62 62 62 61 62 61 61 61 61 60 60 60 59 59 58 59 58 57 57 57 58 58 58 59 59 59 59 60 60 60 60 61 61 61 61 61 61 61 60
62 61 61 61 61 62 63 61 61 61 60 59 59 59 59 59 58 60 60 59 57 57 58 58 58 59 57 59 59 58 59 59 59 59 59 59 60 61 61 62 61 60
63 62 61 62 63 62 61 59 59 59 59 59 59 59 59 59 59 58 57 57 57 58 58 58 58 57 57 58 57 57 58 58 58 58 57 57 58 60 60 61 61 60
62 62 62 62 62 60 58 58 58 59 59 58 58 59 59 57 57 57 57 57 57 57 57 57 56 56 58 57 57 56 55 55 55 57 57 57 57 58 60 60 60 60
61 61 61 61 62 61 58 58 58 59 59 59 58 58 58 55 55 56 56 57 57 57 57 55 54 56 56 55 54 53 54 55 55 55 53 54 55 56 58 59 59 60
61 61 61 60 60 60 58 58 58 59 59 58 57 58 57 54 54 55 56 56 56 56 56 55 54 56 55 54 54 55 55 55 52 53 52 53 53 56 56 58 58 58
61 60 60 60 60 59 58 58 59 58 58 58 57 57 58 54 54 55 55 55 55 55 56 55 55 55 55 56 54 51 50 50 54 51 49 52 54 55 56 57 58 58
60 60 60 60 60 59 58 58 58 57 58 57 56 57 58 55 54 55 54 53 54 54 54 55 56 54 55 53 52 51 49 51 52 50 51 53 53 54 57 58 58 58
59 60 60 60 60 59 57 57 56 56 57 56 56 57 56 54 55 55 53 51 52 52 52 54 55 54 55 52 51 51 51 52 50 53 53 53 54 55 58 56 57 57
59 59 59 60 60 58 57 56 55 56 57 57 56 57 54 53 54 54 53 50 49 49 51 54 53 54 51 50 50 52 53 52 53 53 51 52 54 55 55 56 56 56
59 58 59 59 60 58 57 56 55 56 56 56 57 56 53 53 54 53 53 50 50 50 52 52 53 53 50 49 51 54 54 54 53 52 53 54 51 52 55 56 56 55
58 59 60 59 59 57 57 56 55 56 55 55 56 54 54 54 54 53 54 50 51 49 53 54 53 52 52 51 53 54 53 54 54 53 53 54 54 54 53 53 54 53
59 59 59 59 58 58 57 56 55 56 55 55 54 54 56 54 54 52 53 51 53 53 52 52 51 50 49 49 53 53 53 53 53 53 54 54 54 54 55 55 55 54
59 59 59 58 58 57 56 55 56 56 55 54 53 54 53 53 52 53 52 53 53 52 51 51 50 49 46 43 48 55 56 56 55 54 53 54 55 54 55 56 56 56
58 58 58 57 57 57 57 57 57 56 53 53 55 55 52 51 51 53 54 54 53 51 50 49 47 45 42 40 42 48 54 55 55 56 56 56 54 54 54 55 57 58
58 57 57 56 57 56 57 56 57 56 56 56 56 56 56 56 57 56 55 54 53 51 50 48 45 42 40 41 41 44 50 55 56 56 56 56 56 56 56 56 57 57
58 57 56 56 55 56 55 56 56 56 56 56 56 56 56 56 57 56 54 53 51 50 49 47 45 40 40 41 41 42 47 53 55 56 56 56 56 57 57 57 57 56
57 56 55 55 55 55 55 54 55 55 56 57 56 55 55 56 56 56 55 53 51 49 47 46 43 40 39 40 41 42 46 52 57 57 57 57 57 57 57 57 56 56
56 55 55 55 55 54 54 54 54 55 55 56 57 57 56 54 55 55 54 52 51 49 46 44 41 38 38 39 40 43 46 51 56 57 58 58 57 56 57 57 57 56
56 55 55 55 54 54 54 54 54 54 55 55 56 57 57 56 56 56 54 53 51 46 42 41 40 37 38 38 40 43 47 54 56 56 57 57 57 57 57 56 56 56
53 55 55 55 54 53 53 53 54 54 55 56 56 57 56 56 56 55 53 50 47 44 41 41 40 39 38 38 39 42 47 52 54 55 56 56 56 57 57 57 57 56
51 51 52 53 54 55 55 55 55 55 55 55 55 55 55 55 53 50 48 46 44 42 41 40 39 39 38 38 40 41 46 51 52 53 53 55 56 56 54 51 49 52
51 51 51 51 51 53 54 55 55 55 55 55 55 55 55 54 52 49 47 45 43 42 43 40 39 39 38 38 39 40 44 45 46 46 47 48 53 54 52 48 45 44
44 50 51 50 50 50 52 53 54 55 54 54 54 54 53 52 50 48 47 47 46 43 42 40 39 38 38 37 38 39 40 42 43 43 44 46 48 52 52 48 46 43